CAPE
201 158 88 41 23 3 1 1 1 1 0 0 0 0 0 0 0 0 0 0 0 0
189 188 92 46 17 2 1 0 0 0 0 0 0 0 0 0 0 0 0 0 0 0
0 41 63 28 30 1 0 0 0 0 1 1 0 0 0 0 0 0 0 0 0 0
0 0 0 14 5 0 0 0 0 0 0 0 0 0 0 0 0 0 0 0 0 0
0 0 0 0 0 0 0 0 0 0 0 0 0 0 0 0 0 0 0 0 0 0
0 1 0 0 0 0 0 0 0 0 0 0 0 0 0 0 0 0 0 0 0 0
0 1 0 0 0 0 0 0 0 0 0 0 1 0 0 0 0 0 0 0 0 0
0 0 1 1 0 0 1 1 0 1 0 1 1 1 0 0 0 0 0 0 0 0
1 0 0 1 1 1 1 0 0 0 1 0 1 0 3 0 3 1 0 0 0 0
0 0 1 0 1 0 1 1 1 1 0 0 0 0 1 2 0 1 1 1 0 0
0 0 0 0 0 0 1 1 1 1 1 1 1 2 1 1 0 0 0 1 1 1
0 0 0 0 0 0 0 0 1 2 1 1 1 1 3 1 1 1 1 0 0 0
0 0 0 0 0 0 0 0 0 0 1 1 1 1 1 1 0 1 1 1 1 0
0 0 0 0 0 0 0 0 0 0 0 0 0 0 1 2 0 0 1 2 2 1
CIN
-82 -92 -107 -134 -136 0 0 0 0 0 0 0 0 0 0 0 0 0 0 0 0 0
-87 -73 -69 -136 -143 -154 0 0 0 0 0 0 0 0 0 0 0 0 0 0 0 0
0 -58 -26 -66 -90 -52 0 0 0 0 0 0 0 0 0 0 0 0 0 0 0 0
0 0 0 -67 -70 -7 0 0 0 0 0 0 0 0 0 0 0 0 0 0 0 0
0 0 0 0 -2 0 0 0 0 0 0 0 0 0 0 0 0 0 0 0 0 0
0 0 0 0 0 0 0 0 0 0 0 0 0 0 0 0 0 0 0 0 0 0
0 0 0 0 0 0 0 0 0 0 0 0 0 0 0 0 0 0 0 0 0 0
0 0 0 0 0 0 0 0 0 0 0 0 0 0 0 0 0 0 0 0 0 0
0 0 0 0 0 0 0 0 0 0 0 0 0 0 0 0 0 0 0 0 0 0
0 0 0 0 0 0 0 0 0 0 0 0 0 0 0 0 0 0 0 0 0 0
0 0 0 0 0 0 0 0 0 0 0 0 0 0 0 0 0 0 0 0 0 0
0 0 0 0 0 0 0 0 0 0 0 0 0 0 0 0 0 0 0 0 0 0
0 0 0 0 0 0 0 0 0 0 0 0 0 0 0 0 0 0 0 0 0 0
0 0 0 0 0 0 0 0 0 0 0 0 0 0 0 0 0 0 0 0 0 0
Wind_Speed
37 36 36 36 33 33 39 38 37 36 35 37 31 29 32 32 32 31 32 32 31 31
37 35 36 35 35 32 32 33 33 35 36 35 34 34 32 34 33 32 33 34 33 34
33 33 33 33 35 34 33 31 33 35 35 34 34 40 33 34 35 34 33 33 33 34
29 31 33 34 34 33 33 32 33 32 32 33 35 37 36 35 33 35 36 34 34 34
24 26 27 31 33 33 35 33 31 29 30 32 34 34 36 37 35 32 33 36 35 35
22 23 26 29 31 31 32 33 34 34 30 32 31 31 32 33 34 34 35 35 35 35
25 25 27 29 29 32 33 34 33 36 37 36 33 31 28 28 31 32 33 32 32 31
25 25 27 28 29 30 32 34 33 35 37 36 38 34 32 31 30 29 32 34 33 31
24 27 29 29 29 28 29 29 32 33 34 36 38 38 35 35 33 34 36 38 37 37
21 24 26 27 28 28 29 28 29 30 31 33 32 32 32 34 35 34 36 37 36 35
19 21 22 23 25 27 28 29 30 29 30 31 32 32 32 32 32 33 35 36 35 38
19 20 20 21 22 24 26 28 30 30 30 31 32 32 32 31 32 33 34 32 31 31
20 20 20 21 21 22 23 25 26 28 29 31 32 32 33 33 33 36 35 34 34 33
20 20 21 21 22 22 22 22 23 25 26 27 28 31 32 33 33 36 36 37 35 34
Wind_Direction
238 241 243 243 243 245 246 246 245 248 242 244 241 238 238 241 242 244 246 249 252 256
237 241 245 245 243 247 247 248 248 244 250 249 243 242 239 241 244 245 248 251 252 256
240 244 248 250 248 249 249 250 251 250 252 248 247 246 241 244 244 247 249 252 253 256
246 250 252 252 250 251 252 251 254 255 252 250 248 246 246 249 246 247 250 253 255 257
251 254 255 255 253 253 253 252 250 253 255 254 252 252 246 249 249 249 251 253 257 259
256 258 261 262 259 256 256 255 252 251 254 255 254 255 253 253 253 253 254 255 257 259
260 264 266 267 267 261 259 256 258 256 257 253 254 255 256 256 255 255 256 256 257 259
269 272 273 272 270 268 264 261 260 259 258 257 254 255 253 256 257 257 257 257 259 261
279 275 272 274 273 271 269 266 262 261 261 259 258 259 257 254 256 257 259 260 262 263
290 283 278 275 273 271 269 269 267 265 263 263 265 264 263 259 259 260 262 262 263 263
302 297 290 283 278 275 273 270 269 270 268 267 266 265 263 262 263 264 263 263 264 263
309 306 301 293 287 283 278 275 273 272 272 269 268 267 266 264 263 264 265 266 267 266
319 312 306 300 293 290 286 282 278 275 275 273 270 269 267 265 265 265 266 267 267 267
322 315 308 302 300 296 292 289 285 282 281 278 276 273 270 267 265 265 266 267 268 269